Weather History for North Las Vegas, NV

Change the Weather History Date:

Friday, April 19, 2013

  Actual Average Record
Temperature  
Mean Temperature 60 °F -  
Max Temperature 75 °F 80 °F 97 °F (1954)
Min Temperature 46 °F 53 °F 32 °F (1957)
Degree Days  
Heating Degree Days 4    
Growing Degree Days 10 (Base 50)    
Moisture  
Dew Point 13 °F    
Average Humidity 16    
Maximum Humidity 29    
Minimum Humidity 7    
Precipitation  
Precipitation 0.00 in - - ()
Sea Level Pressure  
Sea Level Pressure 30.14 in    
Wind  
Wind Speed 4 mph (WNW)    
Max Wind Speed 8 mph    
Max Gust Speed -    
Visibility 10 miles    
Events      
Averages and records for this station are not official NWS values.
T = Trace of Precipitation, MM = Missing Value Source: NWS Daily Summary

Daily Weather History Graph

Daily Weather History Graph

Search for Another Location

Airport:

Trip Planner

Search our weather history database for the weather conditions in past years. The results will help you decide how hot, cold, wet, or windy it might be!

Date:

Astronomy

Apr. 19, 2013 Rise Set
Actual Time 6:01 AM PDT 7:18 PM PDT
Civil Twilight 5:35 AM PDT 7:45 PM PDT
Nautical Twilight 5:03 AM PDT 8:17 PM PDT
Astronomical Twilight 4:29 AM PDT 8:50 PM PDT
Moon 1:17 PM PDT (4/19) 2:08 AM PDT (4/19)
Length of Visible Light 14h 10m
Length of Day
13h 16m
Waxing Gibbous, 62% of the Moon is Illuminated
Apr 19
Waxing Gibbous
Apr 25
Full
May 2
Last Quarter
May 9
New
May 17
First Quarter

Hourly Weather History & Observations

Time (PDT) Temp. Dew Point Humidity Pressure Visibility Wind Dir Wind Speed Gust Speed Precip Events Conditions
12:53 AM 53.1 °F 17.1 °F 24% 30.27 in 10.0 mi WNW 5.8 mph - N/A   Clear
1:53 AM 52.0 °F 15.1 °F 23% 30.26 in 10.0 mi WNW 3.5 mph - N/A   Clear
2:53 AM 50.0 °F 16.0 °F 26% 30.26 in 10.0 mi NNW 4.6 mph - N/A   Clear
3:53 AM 48.0 °F 17.1 °F 29% 30.26 in 10.0 mi NNW 3.5 mph - N/A   Clear
4:53 AM 46.9 °F 14.0 °F 27% 30.26 in 10.0 mi NNW 4.6 mph - N/A   Clear
5:53 AM 48.0 °F 17.1 °F 29% 30.25 in 10.0 mi WNW 5.8 mph - N/A   Clear
6:53 AM 48.9 °F 17.1 °F 28% 30.27 in 10.0 mi Calm Calm - N/A   Clear
7:53 AM 55.0 °F 15.1 °F 21% 30.29 in 10.0 mi Calm Calm - N/A   Clear
8:53 AM 57.9 °F 14.0 °F 18% 30.28 in 10.0 mi Calm Calm - N/A   Clear
9:53 AM 62.1 °F 12.0 °F 14% 30.26 in 10.0 mi SSE 5.8 mph - N/A   Clear
10:53 AM 64.9 °F 12.0 °F 13% 30.24 in 10.0 mi SE 6.9 mph - N/A   Clear
11:53 AM 66.9 °F 10.9 °F 11% 30.22 in 10.0 mi Variable 4.6 mph - N/A   Clear
12:53 PM 70.0 °F 10.9 °F 10% 30.18 in 10.0 mi Variable 3.5 mph - N/A   Clear
1:53 PM 71.1 °F 10.0 °F 9% 30.15 in 10.0 mi Calm Calm - N/A   Clear
2:53 PM 73.9 °F 10.0 °F 9% 30.09 in 10.0 mi East 4.6 mph - N/A   Clear
3:53 PM 75.0 °F 8.1 °F 8% 30.04 in 10.0 mi Variable 4.6 mph - N/A   Clear
4:53 PM 75.0 °F 7.0 °F 7% 30.02 in 10.0 mi SW 3.5 mph - N/A   Clear
5:53 PM 75.9 °F 8.1 °F 7% 29.99 in 10.0 mi Variable 5.8 mph - N/A   Clear
6:53 PM 73.9 °F 9.0 °F 8% 29.96 in 10.0 mi SE 6.9 mph - N/A   Clear
7:53 PM 72.0 °F 10.9 °F 10% 29.95 in 10.0 mi SSE 8.1 mph - N/A   Clear
8:53 PM 70.0 °F 15.1 °F 12% 29.96 in 10.0 mi SW 4.6 mph - N/A   Clear
9:53 PM 68.0 °F 16.0 °F 14% 29.95 in 10.0 mi West 5.8 mph - N/A   Clear
10:53 PM 63.0 °F 16.0 °F 16% 29.95 in 10.0 mi North 4.6 mph - N/A   Clear
11:53 PM 60.1 °F 17.1 °F 19% 29.95 in 10.0 mi NNW 5.8 mph - N/A   Clear